OZ7MKS Weather Reports


Display with metric or nautical units.
time (UTC)temp
F
wind
direction
speed
MPH
gust
MPH
rain 1hr
in
rain 24hr
in
rain mn
in
humidity
%
barometer
mb
20260507113004 61 53 2.0 7.0 0.00 0.00 0.00 58 1017.2
20260507112504 61 55 3.0 8.0 0.00 0.00 0.00 57 1017.2
20260507112004 61 337 2.0 6.0 0.00 0.00 0.00 56 1017.2
20260507111504 61 28 2.0 3.0 0.00 0.00 0.00 58 1017.2
20260507110503 60 36 3.0 6.0 0.00 0.00 0.00 59 1017.2
20260507110004 59 95 3.0 6.0 0.00 0.00 0.00 59 1017.2
20260507105504 58 37 3.0 6.0 0.00 0.00 0.00 61 1017.2
20260507105004 57 55 1.0 3.0 0.00 0.00 0.00 58 1017.3
20260507104004 57 323 2.0 3.0 0.00 0.00 0.00 57 1017.3
20260507103504 57 327 2.0 3.0 0.00 0.00 0.00 60 1017.2
20260507103003 58 17 2.0 5.0 0.00 0.00 0.00 58 1017.2
20260507102504 58 6 2.0 3.0 0.00 0.00 0.00 56 1017.2
20260507102006 58 109 1.0 3.0 0.00 0.00 0.00 57 1017.2
20260507101504 58 111 3.0 6.0 0.00 0.00 0.00 57 1017.1
20260507101004 58 23 2.0 8.0 0.00 0.00 0.00 53 1017.1
20260507100503 58 68 3.0 6.0 0.00 0.00 0.00 57 1017.1
20260507100003 58 61 3.0 8.0 0.00 0.00 0.00 55 1017.0
20260507095504 58 43 4.0 7.0 0.00 0.00 0.00 56 1017.0
20260507095004 58 112 3.0 7.0 0.00 0.00 0.00 57 1016.9
20260507094503 58 51 3.0 5.0 0.00 0.00 0.00 59 1016.9
20260507094004 58 71 3.0 5.0 0.00 0.00 0.00 60 1016.9
20260507093004 58 44 2.0 6.0 0.00 0.00 0.00 58 1016.9
20260507092503 57 24 2.0 6.0 0.00 0.00 0.00 61 1016.8
20260507092004 57 83 2.0 7.0 0.00 0.00 0.00 60 1016.8
20260507091504 56 91 3.0 3.0 0.00 0.00 0.00 62 1016.8
20260507091004 56 83 3.0 3.0 0.00 0.00 0.00 64 1016.8
20260507090503 55 103 2.0 3.0 0.00 0.00 0.00 64 1016.8
20260507090004 54 257 1.0 3.0 0.00 0.00 0.00 64 1016.8
20260507085504 53 257 2.0 3.0 0.00 0.00 0.00 62 1016.8
20260507085004 53 256 1.0 3.0 0.00 0.00 0.00 60 1016.8
20260507084503 53 256 1.0 3.0 0.00 0.00 0.00 61 1016.9
20260507084004 53 256 2.0 3.0 0.00 0.00 0.00 64 1016.9
20260507083504 53 255 2.0 5.0 0.00 0.00 0.00 64 1016.8
20260507083004 54 227 1.0 3.0 0.00 0.00 0.00 62 1016.8
20260507082504 54 139 1.0 2.0 0.00 0.00 0.00 59 1016.9
20260507082003 54 136 0.0 3.0 0.00 0.00 0.00 60 1016.8
20260507081504 54 136 2.0 3.0 0.00 0.00 0.00 64 1016.8
20260507081004 54 141 1.0 3.0 0.00 0.00 0.00 62 1016.8
20260507080003 53 54 1.0 2.0 0.00 0.00 0.00 63 1016.8
20260507075503 53 53 1.0 3.0 0.00 0.00 0.00 65 1016.7
20260507075003 53 82 1.0 3.0 0.00 0.00 0.00 66 1016.7
20260507074503 52 69 1.0 2.0 0.00 0.00 0.00 66 1016.6
20260507073504 52 69 1.0 3.0 0.00 0.00 0.00 65 1016.5
20260507073004 52 69 1.0 3.0 0.00 0.00 0.00 65 1016.5
20260507072504 52 71 1.0 3.0 0.00 0.00 0.00 63 1016.5
20260507072004 53 71 2.0 5.0 0.00 0.00 0.00 66 1016.5
20260507071504 52 82 2.0 3.0 0.00 0.00 0.00 66 1016.4
20260507071004 52 102 2.0 6.0 0.00 0.00 0.00 69 1016.4
20260507070007 51 88 2.0 3.0 0.00 0.00 0.00 70 1016.4
20260507065503 50 77 0.0 2.0 0.00 0.00 0.00 72 1016.3
20260507065004 49 77 1.0 3.0 0.00 0.00 0.00 72 1016.3
20260507064504 49 77 0.0 2.0 0.00 0.00 0.00 72 1016.3
20260507064004 49 76 2.0 3.0 0.00 0.00 0.00 74 1016.2
20260507063504 48 344 0.0 0.0 0.00 0.00 0.00 75 1016.3
20260507063003 48 344 0.0 1.0 0.00 0.00 0.00 75 1016.3
20260507062504 48 344 1.0 3.0 0.00 0.00 0.00 74 1016.2
20260507062003 47 344 1.0 2.0 0.00 0.00 0.00 76 1016.2
20260507061504 47 340 0.0 0.0 0.00 0.00 0.00 76 1016.1
20260507061004 46 340 0.0 0.0 0.00 0.00 0.00 77 1016.2
20260507060504 46 340 0.0 0.0 0.00 0.00 0.00 78 1016.1
20260507060003 46 340 0.0 0.0 0.00 0.00 0.00 81 1016.1
20260507055505 45 340 0.0 0.0 0.00 0.00 0.00 82 1016.1
20260507055004 44 340 0.0 0.0 0.00 0.00 0.00 82 1016.1
20260507054503 44 340 0.0 0.0 0.00 0.00 0.00 85 1016.0
20260507053503 42 340 0.0 0.0 0.00 0.00 0.00 86 1015.9
20260507053004 42 340 0.0 0.0 0.00 0.00 0.00 87 1015.8
20260507052503 42 340 0.0 0.0 0.00 0.00 0.00 87 1015.8
20260507052004 42 340 0.0 0.0 0.00 0.00 0.00 88 1015.8
20260507051504 42 340 0.0 0.0 0.00 0.00 0.00 89 1015.7
20260507051004 41 340 0.0 0.0 0.00 0.00 0.00 91 1015.7
20260507050005 40 340 0.0 0.0 0.00 0.00 0.00 91 1015.6
20260507045504 39 340 0.0 0.0 0.00 0.00 0.00 92 1015.6
20260507045004 38 340 0.0 0.0 0.00 0.00 0.00 91 1015.6
20260507044004 37 340 0.0 0.0 0.00 0.00 0.00 91 1015.5
20260507043004 37 340 0.0 0.0 0.00 0.00 0.00 91 1015.3
20260507042503 36 340 0.0 0.0 0.00 0.00 0.00 90 1015.3
20260507042004 36 340 0.0 0.0 0.00 0.00 0.00 90 1015.2
20260507041503 36 340 0.0 0.0 0.00 0.00 0.00 90 1015.2
20260507041003 35 340 0.0 0.0 0.00 0.00 0.00 90 1015.2
20260507040504 35 340 0.0 0.0 0.00 0.00 0.00 89 1015.1
20260507035004 35 340 0.0 0.0 0.00 0.00 0.00 89 1015.1
20260507034003 35 340 0.0 0.0 0.00 0.00 0.00 88 1015.0
20260507033504 36 340 0.0 0.0 0.00 0.00 0.00 88 1014.9
20260507033003 36 340 0.0 0.0 0.00 0.00 0.00 89 1015.0
20260507032504 36 340 0.0 0.0 0.00 0.00 0.00 89 1015.0
20260507032004 36 340 0.0 0.0 0.00 0.00 0.00 89 1015.0
20260507031504 36 340 0.0 0.0 0.00 0.00 0.00 89 1014.9
20260507030504 36 340 0.0 0.0 0.00 0.00 0.00 88 1014.9
20260507030004 36 340 0.0 0.0 0.00 0.00 0.00 89 1014.9
20260507025504 36 340 0.0 0.0 0.00 0.00 0.00 89 1014.9
20260507025004 36 340 0.0 0.0 0.00 0.00 0.00 89 1014.9
20260507024504 36 340 0.0 0.0 0.00 0.00 0.00 89 1014.9
20260507024004 36 340 0.0 0.0 0.00 0.00 0.00 89 1014.8
20260507023504 36 340 0.0 0.0 0.00 0.00 0.00 89 1014.8
20260507023004 36 340 0.0 0.0 0.00 0.00 0.00 89 1014.9
20260507022503 36 340 0.0 0.0 0.00 0.00 0.00 88 1014.9
20260507022003 36 340 0.0 0.0 0.00 0.00 0.00 88 1014.8
20260507021504 36 340 0.0 0.0 0.00 0.00 0.00 88 1014.7
20260507021004 36 340 0.0 0.0 0.00 0.00 0.00 88 1014.7
20260507020504 36 340 0.0 0.0 0.00 0.00 0.00 88 1014.7
20260507015504 36 340 0.0 0.0 0.00 0.00 0.00 88 1014.7
20260507015004 36 340 0.0 0.0 0.00 0.00 0.00 88 1014.7
20260507014504 36 340 0.0 0.0 0.00 0.00 0.00 88 1014.7
20260507014004 37 340 0.0 0.0 0.00 0.00 0.00 88 1014.6
20260507013503 37 340 0.0 0.0 0.00 0.00 0.00 87 1014.5
20260507013003 37 340 0.0 0.0 0.00 0.00 0.00 87 1014.5
20260507012504 37 340 0.0 0.0 0.00 0.00 0.00 87 1014.4
20260507012004 38 340 0.0 0.0 0.00 0.00 0.00 87 1014.5
20260507011503 38 340 0.0 0.0 0.00 0.00 0.00 87 1014.5
20260507011004 38 340 0.0 0.0 0.00 0.00 0.00 87 1014.4
20260507010504 38 340 0.0 0.0 0.00 0.00 0.00 86 1014.4
20260507010004 39 340 0.0 0.0 0.00 0.00 0.00 86 1014.4
20260507005504 39 340 0.0 0.0 0.00 0.00 0.00 86 1014.4
20260507005004 39 340 0.0 0.0 0.00 0.00 0.00 86 1014.4
20260507004503 39 340 0.0 0.0 0.00 0.00 0.00 86 1014.4
20260507004003 39 340 0.0 0.0 0.00 0.00 0.00 86 1014.4
20260507003504 39 340 0.0 0.0 0.00 0.00 0.00 86 1014.4
20260507002504 39 340 0.0 0.0 0.00 0.00 0.00 86 1014.5
20260507002003 39 340 0.0 0.0 0.00 0.00 0.00 86 1014.4
20260507001503 39 340 0.0 0.0 0.00 0.00 0.00 86 1014.4
20260507001003 39 340 0.0 0.0 0.00 0.00 0.00 85 1014.4
20260507000503 39 340 0.0 0.0 0.00 0.00 0.00 86 1014.4
20260507000004 39 340 0.0 0.0 0.00 0.00 0.00 85 1014.4
20260506235504 39 340 0.0 0.0 0.00 0.00 0.00 85 1014.4
20260506234504 39 340 0.0 0.0 0.00 0.00 0.00 85 1014.4
20260506234004 39 340 0.0 0.0 0.00 0.00 0.00 85 1014.5
20260506233503 39 340 0.0 0.0 0.00 0.00 0.00 85 1014.5
20260506233003 39 340 0.0 0.0 0.00 0.00 0.00 85 1014.5
20260506232004 38 340 0.0 1.0 0.00 0.00 0.00 85 1014.5
20260506231003 38 340 0.0 0.0 0.00 0.00 0.00 84 1014.4
20260506230503 38 340 0.0 0.0 0.00 0.00 0.00 84 1014.4
20260506230004 38 340 0.0 0.0 0.00 0.00 0.00 83 1014.5
20260506225504 38 340 0.0 0.0 0.00 0.00 0.00 83 1014.5
20260506224503 39 340 0.0 0.0 0.00 0.00 0.00 83 1014.4
20260506223504 39 340 1.0 2.0 0.00 0.00 0.00 83 1014.4
20260506222504 39 340 0.0 0.0 0.00 0.00 0.00 83 1014.3
20260506222004 39 340 1.0 2.0 0.00 0.00 0.00 83 1014.3
20260506221504 40 340 0.0 0.0 0.00 0.00 0.00 83 1014.3
20260506221003 40 340 0.0 2.0 0.00 0.00 0.00 83 1014.3
20260506220503 40 340 0.0 0.0 0.00 0.00 0.00 83 1014.3
20260506220004 40 340 0.0 0.0 0.00 0.00 0.00 83 1014.3
20260506215504 40 340 0.0 0.0 0.00 0.00 0.00 82 1014.2
20260506215004 40 340 0.0 0.0 0.00 0.00 0.00 82 1014.1
20260506214504 40 340 0.0 2.0 0.00 0.00 0.00 82 1014.1
20260506214003 40 340 1.0 2.0 0.00 0.00 0.00 82 1014.1
20260506213504 40 340 0.0 1.0 0.00 0.00 0.00 82 1014.0
20260506213004 40 340 0.0 1.0 0.00 0.00 0.00 82 1013.9
20260506212503 40 340 0.0 1.0 0.00 0.00 0.00 81 1014.0
20260506212003 40 340 0.0 1.0 0.00 0.00 0.00 81 1014.0
20260506211503 41 340 0.0 0.0 0.00 0.00 0.00 80 1013.9
20260506211003 41 340 0.0 0.0 0.00 0.00 0.00 81 1013.8
20260506210504 41 340 0.0 1.0 0.00 0.00 0.00 80 1013.8
20260506210004 41 340 1.0 3.0 0.00 0.00 0.00 80 1013.8
20260506205504 41 339 0.0 0.0 0.00 0.00 0.00 80 1013.8
20260506204004 42 340 0.0 0.0 0.00 0.00 0.00 79 1013.8
20260506203504 42 340 0.0 0.0 0.00 0.00 0.00 78 1013.8
20260506203004 42 340 0.0 0.0 0.00 0.00 0.00 78 1013.7
20260506202504 42 340 0.0 1.0 0.00 0.00 0.00 79 1013.7
20260506202004 42 340 2.0 3.0 0.00 0.00 0.00 78 1013.7
20260506201503 41 345 1.0 2.0 0.00 0.00 0.00 79 1013.7
20260506201004 41 345 1.0 2.0 0.00 0.00 0.00 78 1013.7
20260506200504 41 345 0.0 3.0 0.00 0.00 0.00 77 1013.7
20260506200003 42 346 0.0 2.0 0.00 0.00 0.00 77 1013.7
20260506195504 42 346 0.0 2.0 0.00 0.00 0.00 76 1013.6
20260506195004 42 346 0.0 0.0 0.00 0.00 0.00 75 1013.6
20260506194503 42 346 0.0 1.0 0.00 0.00 0.00 73 1013.6
20260506194004 43 346 0.0 0.0 0.00 0.00 0.00 73 1013.7
20260506193504 43 346 0.0 0.0 0.00 0.00 0.00 72 1013.6
20260506193004 44 346 0.0 2.0 0.00 0.00 0.00 70 1013.6
20260506192504 44 346 0.0 1.0 0.00 0.00 0.00 69 1013.5
20260506191503 45 338 0.0 2.0 0.00 0.00 0.00 67 1013.5
20260506191004 45 336 0.0 2.0 0.00 0.00 0.00 67 1013.4
20260506190504 45 335 1.0 3.0 0.00 0.00 0.00 67 1013.3
20260506190004 45 334 0.0 3.0 0.00 0.00 0.00 67 1013.3
20260506185003 46 355 1.0 3.0 0.00 0.00 0.00 65 1013.3
20260506184504 46 1 1.0 5.0 0.00 0.00 0.00 66 1013.2
20260506184003 47 332 1.0 3.0 0.00 0.00 0.00 66 1013.1
20260506183503 47 0 1.0 3.0 0.00 0.00 0.00 66 1013.1
20260506183004 47 9 2.0 6.0 0.00 0.00 0.00 64 1013.1
20260506182503 47 7 1.0 3.0 0.00 0.00 0.00 65 1013.1
20260506182004 48 337 3.0 8.0 0.00 0.00 0.00 64 1013.1
20260506181503 48 337 2.0 5.0 0.00 0.00 0.00 64 1013.1
20260506181004 48 337 2.0 8.0 0.00 0.00 0.00 64 1013.0
20260506180503 48 18 1.0 8.0 0.00 0.00 0.00 66 1012.9
20260506180004 49 17 2.0 5.0 0.00 0.00 0.00 66 1012.9
20260506175504 49 348 2.0 8.0 0.00 0.00 0.00 65 1012.8
20260506175003 49 357 3.0 10.0 0.00 0.00 0.00 65 1012.8
20260506174503 49 316 3.0 9.0 0.00 0.00 0.00 64 1012.7
20260506174003 49 345 4.0 8.0 0.00 0.00 0.00 64 1012.7
20260506173503 49 314 3.0 9.0 0.00 0.00 0.00 63 1012.7
20260506173004 50 5 3.0 8.0 0.00 0.00 0.00 65 1012.7
20260506172503 50 2 3.0 10.0 0.00 0.00 0.00 64 1012.7
20260506172004 50 355 3.0 8.0 0.00 0.00 0.00 65 1012.7
20260506171503 50 336 3.0 10.0 0.00 0.00 0.00 64 1012.6
20260506171003 51 319 3.0 10.0 0.00 0.00 0.00 63 1012.6
20260506170503 51 334 5.0 9.0 0.00 0.00 0.00 62 1012.6
20260506170004 52 314 3.0 12.0 0.00 0.00 0.00 62 1012.6
20260506165504 52 335 3.0 8.0 0.00 0.00 0.00 63 1012.5
20260506165004 52 341 3.0 9.0 0.00 0.00 0.00 62 1012.5
20260506163503 53 12 2.0 9.0 0.00 0.00 0.00 62 1012.4
20260506162504 54 6 2.0 9.0 0.00 0.00 0.00 62 1012.4
20260506162003 54 5 3.0 12.0 0.00 0.00 0.00 61 1012.4
20260506161004 55 52 4.0 9.0 0.00 0.00 0.00 61 1012.4
20260506160504 55 28 3.0 9.0 0.00 0.00 0.00 62 1012.3
20260506160004 55 11 3.0 10.0 0.00 0.00 0.00 62 1012.4
20260506155504 55 23 3.0 12.0 0.00 0.00 0.00 61 1012.4
20260506155004 55 8 5.0 9.0 0.00 0.00 0.00 60 1012.3
20260506154503 55 5 2.0 8.0 0.00 0.00 0.00 62 1012.3
20260506154004 55 13 4.0 10.0 0.00 0.00 0.00 61 1012.3
20260506153504 56 355 3.0 9.0 0.00 0.00 0.00 61 1012.3
20260506153003 56 336 3.0 9.0 0.00 0.00 0.00 60 1012.3
20260506152504 56 323 2.0 8.0 0.00 0.00 0.00 60 1012.3
20260506152004 56 312 3.0 8.0 0.00 0.00 0.00 58 1012.2
20260506151503 57 20 3.0 6.0 0.00 0.00 0.00 59 1012.2
20260506151004 56 342 3.0 8.0 0.00 0.00 0.00 57 1012.2
20260506150003 57 266 3.0 12.0 0.00 0.00 0.00 57 1012.2
20260506145504 58 322 3.0 8.0 0.00 0.00 0.00 57 1012.2
20260506145003 58 347 3.0 5.0 0.00 0.00 0.00 60 1012.2
20260506144504 58 343 3.0 9.0 0.00 0.00 0.00 59 1012.2
20260506144004 57 245 2.0 8.0 0.00 0.00 0.00 59 1012.2
20260506143503 57 12 2.0 6.0 0.00 0.00 0.00 56 1012.2
20260506143004 57 341 3.0 6.0 0.00 0.00 0.00 57 1012.2
20260506142503 58 317 3.0 7.0 0.00 0.00 0.00 56 1012.2
20260506142004 58 331 2.0 3.0 0.00 0.00 0.00 58 1012.2
20260506141504 58 291 1.0 3.0 0.00 0.00 0.00 57 1012.1
20260506140504 57 353 2.0 6.0 0.00 0.00 0.00 60 1012.2
20260506140003 56 282 2.0 7.0 0.00 0.00 0.00 58 1012.2
20260506135503 57 315 2.0 7.0 0.00 0.00 0.00 58 1012.2
20260506135004 57 328 3.0 8.0 0.00 0.00 0.00 57 1012.2
20260506134503 57 331 3.0 9.0 0.00 0.00 0.00 59 1012.2
20260506134004 57 49 3.0 8.0 0.00 0.00 0.00 63 1012.2
20260506133503 56 355 2.0 7.0 0.00 0.00 0.00 59 1012.2
20260506133004 57 321 3.0 6.0 0.00 0.00 0.00 60 1012.3
20260506132504 57 4 1.0 6.0 0.00 0.00 0.00 61 1012.2
20260506132004 57 49 2.0 9.0 0.00 0.00 0.00 62 1012.3
20260506131503 57 39 3.0 10.0 0.00 0.00 0.00 61 1012.3
20260506130504 57 310 2.0 6.0 0.00 0.00 0.00 61 1012.3
20260506130003 58 349 3.0 8.0 0.00 0.00 0.00 60 1012.4
20260506125504 57 41 2.0 6.0 0.00 0.00 0.00 60 1012.4
20260506125004 57 334 2.0 5.0 0.00 0.00 0.00 61 1012.4
20260506124504 57 7 2.0 6.0 0.00 0.00 0.00 62 1012.4
20260506124004 56 20 3.0 12.0 0.00 0.00 0.00 61 1012.4
20260506123504 57 266 3.0 9.0 0.00 0.00 0.00 59 1012.4
20260506123004 58 340 3.0 6.0 0.00 0.00 0.00 57 1012.4
20260506122503 58 184 2.0 3.0 0.00 0.00 0.00 59 1012.2
20260506122004 58 263 1.0 3.0 0.00 0.00 0.00 59 1012.3
20260506121503 58 35 3.0 7.0 0.00 0.00 0.00 61 1012.4
20260506121004 58 18 4.0 6.0 0.00 0.00 0.00 61 1012.4
20260506120504 58 344 2.0 8.0 0.00 0.00 0.00 59 1012.4
20260506120003 58 356 2.0 10.0 0.00 0.00 0.00 60 1012.4
20260506115504 58 56 5.0 9.0 0.00 0.00 0.00 59 1012.4
20260506114504 58 53 3.0 9.0 0.00 0.00 0.00 58 1012.4
20260506114003 58 91 3.0 9.0 0.00 0.00 0.00 58 1012.5